Location: Houhaj�rvi
(61.2833°N, 23.0000°E)
Time: 08:00:08
(UTC+00:00)

Cosmos 2082 - Pass Details

Date: 27 February 2020
Orbit: 832 x 857 km, 71.0° (Epoch: 09 April)

Event Time Altitude Azimuth Distance (km) Brightness Sun altitude
Rises 16:34:15 0° 309° (NW) 3,426 7.6 -6.5°
Reaches altitude 10° 16:36:50 10° 316° (NW) 2,492 6.8 -6.9°
Maximum altitude 16:42:19 44° 28° (NNE) 1,166 4.2 -7.5°
Drops below altitude 10° 16:47:48 10° 101° (E) 2,495 5.5 -8.2°
Enters shadow 16:48:01 - 102° (ESE) 2,572 5.6 -8.2°
